Terug naar catalogus

CHINASAT 19

ActiefCommunicatieGEO
NORAD 54230·PAYLOAD·🇨🇳 China

Gelanceerd Nov 5, 2022 vanaf Xichang Satellite Launch Center

Loading…

TLE

VersSource: Space-Track

Epoch: Sep 14, 2026, 21:25 UTC

1 54230U 22148A   26257.89253395 -.00000089  00000-0  00000-0 0  9995
2 54230   0.0135 218.5935 0004470 319.8371 299.9171  1.00272615 14282

Volg CHINASAT 19 in realtime met AllMySat

Download on the App Store